Weather Roundup
Issued by NWS Chicago, IL

Home | Current Version | Previous Version | Text Only | Print | Product List | Glossary On
Versions: 1 2 3 4 5 6 7 8 9 10 11 12 13 14 15 16 17 18 19 20 21 22 23 24 25 26 27 28 29 30 31 32 33 34 35 36 37 38 39 40 41 42 43 44 45 46 47 48 49 50
000
NZUS59 KLOT 302303
HRRLOT

CHICAGO AREA WEATHER ROUNDUP
NATIONAL WEATHER SERVICE CHICAGO/ROMEOVILLE IL
600 PM CDT SAT APR 30 2016

NOTE: "FAIR" INDICATES FEW OR NO CLOUDS BELOW 12,000 FEET WITH NO
SIGNIFICANT WEATHER AND/OR OBSTRUCTIONS TO VISIBILITY.

* THESE STATIONS ARE NOT UNDER NWS QUALITY CONTROL. THEY ALSO MAY NOT
  REPORT WEATHER SUCH AS PRECIPITATION OR FOG.

ILZ005-006-012>014-019>023-010000-
NORTHEAST ILLINOIS

CITY           SKY/WX    TMP DP  RH WIND       PRES   REMARKS
OHARE          HVY RAIN  45  43  93 NE20G30   29.92R FOG
MIDWAY         LGT RAIN  46  43  89 NE20      29.92R FOG
AURORA         CLOUDY    46  44  93 NE17G30   29.89R FOG
LANSING*       RAIN      48  47  95 NE8       29.90R
WAUKEGAN       LGT RAIN  43  42  97 NE12G21   29.95F FOG
DUPAGE AIRPORT LGT RAIN  45  41  86 NE20G28   29.90R FOG
WHEELING       LGT RAIN  44  42  93 NE13G23   29.95R FOG
$$

WIZ051-052-058>065-066-070>072-010000-
SOUTHEAST WISCONSIN

CITY           SKY/WX    TMP DP  RH WIND       PRES   REMARKS
MILWAUKEE      LGT RAIN  43  39  86 NE14      30.01R
KENOSHA*       LGT RAIN  43  40  89 NE13      29.98S FOG
RACINE*        LGT RAIN  43  39  86 NE13      30.02S
BURLINGTON     RAIN      41  40  95 NE9       29.99R
WAUKESHA       LGT RAIN  41  39  93 NE12      30.02R
$$

INZ001>003-010>013-019-020-010000-
NORTHWEST INDIANA

CITY           SKY/WX    TMP DP  RH WIND       PRES   REMARKS
GARY*          RAIN      48  48 100 E18       29.90S
MICHIGAN CITY* NOT AVBL
RENSSELAER*    NOT AVBL
VALPARAISO     LGT RAIN  48  47  96 E13       29.89F FOG
$$

LMZ740>746-010000-
SOUTHERN LAKE MICHIGAN

STATION/POSITION TIME  SKY/WX   TEMP WIND        PRES    VSBY
                                AIR  DIR/SP/G
                 (UTC)          (F)  (DEG/KT/KT) (MB)    (MI)
HARRISON CRIB    2200            44   50/ 25/ 28   N/A
BURNHAM HARBOR   2300            44   40/ 16/ 20   N/A
CALUMET HARBOR   2200            45              1012.1F
BURNS HARBOR     2207            48   60/ 16/ 18 1012.9F
MICHIGAN CITY    2200            48   40/ 12/ 13   N/A
$$

ABBREVIATIONS USED IN REMARKS
   TC - TEMPERATURE IN CELSIUS
  WCI - WIND CHILL INDEX
   HX - HEAT INDEX
  VSB - VISIBILITY
$$



USA.gov is the U.S. government's official web portal to all federal, state and local government web resources and services.